When you browse on this site, cookies collect data to enhance your experience and personalize the content and advertising you see.
Visit our Privacy Policy to learn more. By continuing to use the site, you agree to this use of cookies and data.
  • En España
  • Lista de países
  • Para 7 días
  • Temperatura del agua
  • Mapa Satelital
  • El tiempo en el mapa
  • Informadores
  • user-avatar
    Iniciar sesión

    Tiempo cada hora Bocharovschina

    Hoy, 21 Julio, Domingo

    Tiempo Temperatura Precipitaciones Viento Presión Humedad
    00:00 +14°C° 0 mm 2 mps 747 mmHg 83%
    01:00 +13°C° 0 mm 2 mps 747 mmHg 84%
    02:00 +13°C° 0 mm 2 mps 748 mmHg 85%
    03:00 +13°C° 0 mm 2 mps 748 mmHg 86%
    04:00 +13°C° 0 mm 2 mps 748 mmHg 88%
    05:00 +13°C° 0 mm 1 mps 748 mmHg 89%
    06:00 +15°C° 0 mm 1 mps 748 mmHg 85%
    07:00 +18°C° 0 mm 1 mps 748 mmHg 80%
    08:00 +20°C° 0 mm 1 mps 748 mmHg 75%
    09:00 +20°C° 0 mm 2 mps 748 mmHg 72%
    10:00 +21°C° 0 mm 2 mps 748 mmHg 68%
    11:00 +24°C° 0 mm 2 mps 748 mmHg 64%
    12:00 +24°C° 0 mm 3 mps 748 mmHg 63%
    13:00 +24°C° 0 mm 3 mps 748 mmHg 62%
    14:00 +25°C° 0 mm 3 mps 748 mmHg 61%
    15:00 +25°C° 0.1 mm 3 mps 748 mmHg 64%
    16:00 +24°C° 0.1 mm 2 mps 748 mmHg 68%
    17:00 +24°C° 0.1 mm 2 mps 748 mmHg 71%
    18:00 +21°C° 0 mm 2 mps 748 mmHg 76%
    19:00 +21°C° 0 mm 1 mps 747 mmHg 81%
    20:00 +19°C° 0 mm 1 mps 747 mmHg 86%
    21:00 +18°C° 0 mm 1 mps 747 mmHg 87%
    22:00 +18°C° 0 mm 1 mps 747 mmHg 88%
    23:00 +16°C° 0 mm 1 mps 748 mmHg 89%

    Mañana, 22 Julio, Lunes

    Tiempo Temperatura Precipitaciones Viento Presión Humedad
    00:00 +16°C° 0 mm 1 mps 747 mmHg 89%
    01:00 +15°C° 0 mm 1 mps 747 mmHg 89%
    02:00 +15°C° 0 mm 1 mps 747 mmHg 89%
    03:00 +14°C° 0 mm 0 mps 747 mmHg 89%
    04:00 +14°C° 0 mm 0 mps 747 mmHg 88%
    05:00 +14°C° 0 mm 0 mps 747 mmHg 87%
    06:00 +16°C° 0 mm 0 mps 747 mmHg 83%
    07:00 +20°C° 0 mm 1 mps 747 mmHg 79%
    08:00 +22°C° 0 mm 1 mps 747 mmHg 74%
    09:00 +23°C° 0 mm 1 mps 747 mmHg 70%
    10:00 +24°C° 0 mm 1 mps 746 mmHg 66%
    11:00 +25°C° 0 mm 1 mps 746 mmHg 63%
    12:00 +25°C° 0.1 mm 1 mps 746 mmHg 62%
    13:00 +25°C° 0.1 mm 1 mps 746 mmHg 62%
    14:00 +25°C° 0.1 mm 1 mps 745 mmHg 61%
    15:00 +24°C° 0.3 mm 2 mps 745 mmHg 70%
    16:00 +21°C° 0.3 mm 2 mps 745 mmHg 79%
    17:00 +19°C° 0.3 mm 3 mps 745 mmHg 88%
    18:00 +18°C° 0.2 mm 3 mps 745 mmHg 90%
    19:00 +18°C° 0.2 mm 3 mps 745 mmHg 93%
    20:00 +17°C° 0.2 mm 2 mps 745 mmHg 95%
    21:00 +17°C° 0.8 mm 3 mps 744 mmHg 96%
    22:00 +16°C° 0.8 mm 3 mps 744 mmHg 96%
    23:00 +16°C° 0.8 mm 3 mps 744 mmHg 97%

    Pasado mañana, 23 Julio, Martes

    Tiempo Temperatura Precipitaciones Viento Presión Humedad
    00:00 +16°C° 1.2 mm 3 mps 744 mmHg 97%
    01:00 +16°C° 1.2 mm 3 mps 744 mmHg 97%
    02:00 +16°C° 1.2 mm 3 mps 744 mmHg 98%
    03:00 +16°C° 1.7 mm 3 mps 744 mmHg 97%
    04:00 +16°C° 1.7 mm 3 mps 744 mmHg 97%
    05:00 +15°C° 1.7 mm 4 mps 744 mmHg 97%
    06:00 +15°C° 2.4 mm 4 mps 744 mmHg 97%
    07:00 +15°C° 2.4 mm 4 mps 744 mmHg 97%
    08:00 +15°C° 2.4 mm 4 mps 744 mmHg 97%
    09:00 +16°C° 0.8 mm 3 mps 744 mmHg 96%
    10:00 +17°C° 0.8 mm 3 mps 744 mmHg 96%
    11:00 +17°C° 0.8 mm 3 mps 744 mmHg 95%
    12:00 +17°C° 0.1 mm 3 mps 744 mmHg 95%
    13:00 +17°C° 0.1 mm 2 mps 744 mmHg 94%
    14:00 +17°C° 0.1 mm 2 mps 744 mmHg 94%
    15:00 +17°C° 0 mm 2 mps 744 mmHg 93%
    16:00 +17°C° 0 mm 2 mps 745 mmHg 93%
    17:00 +17°C° 0 mm 2 mps 745 mmHg 92%
    18:00 +17°C° 0 mm 2 mps 745 mmHg 93%
    19:00 +17°C° 0 mm 2 mps 745 mmHg 94%
    20:00 +17°C° 0 mm 2 mps 745 mmHg 95%
    21:00 +16°C° 0 mm 2 mps 745 mmHg 95%
    22:00 +16°C° 0 mm 2 mps 745 mmHg 95%
    23:00 +16°C° 0 mm 2 mps 745 mmHg 95%

    24 Julio, Miércoles

    Tiempo Temperatura Precipitaciones Viento Presión Humedad
    00:00 +15°C° 0 mm 2 mps 745 mmHg 95%
    01:00 +15°C° 0 mm 2 mps 745 mmHg 95%
    02:00 +14°C° 0 mm 2 mps 745 mmHg 95%
    03:00 +14°C° 0 mm 2 mps 745 mmHg 95%
    04:00 +14°C° 0 mm 2 mps 745 mmHg 95%
    05:00 +14°C° 0 mm 2 mps 745 mmHg 95%
    06:00 +16°C° 0 mm 2 mps 746 mmHg 91%
    07:00 +18°C° 0 mm 2 mps 746 mmHg 87%
    08:00 +20°C° 0 mm 2 mps 746 mmHg 82%
    09:00 +21°C° 0 mm 3 mps 746 mmHg 74%
    10:00 +22°C° 0 mm 3 mps 746 mmHg 66%
    11:00 +25°C° 0 mm 4 mps 746 mmHg 58%
    12:00 +25°C° 0 mm 4 mps 747 mmHg 57%
    13:00 +25°C° 0 mm 4 mps 747 mmHg 57%
    14:00 +26°C° 0 mm 4 mps 747 mmHg 56%
    15:00 +25°C° 0 mm 3 mps 747 mmHg 60%
    16:00 +25°C° 0 mm 3 mps 747 mmHg 63%
    17:00 +25°C° 0 mm 2 mps 747 mmHg 67%
    18:00 +23°C° 0 mm 2 mps 747 mmHg 70%
    19:00 +20°C° 0 mm 2 mps 747 mmHg 73%
    20:00 +19°C° 0 mm 2 mps 747 mmHg 76%
    21:00 +18°C° 0 mm 2 mps 747 mmHg 77%
    22:00 +17°C° 0 mm 2 mps 747 mmHg 78%
    23:00 +16°C° 0 mm 3 mps 748 mmHg 79%

    25 Julio, Jueves

    Tiempo Temperatura Precipitaciones Viento Presión Humedad
    00:00 +16°C° 0 mm 3 mps 748 mmHg 81%
    01:00 +15°C° 0 mm 2 mps 748 mmHg 84%
    02:00 +15°C° 0 mm 2 mps 748 mmHg 86%
    03:00 +14°C° 0 mm 2 mps 748 mmHg 85%
    04:00 +14°C° 0 mm 2 mps 748 mmHg 85%
    05:00 +13°C° 0 mm 3 mps 748 mmHg 84%
    06:00 +16°C° 0 mm 3 mps 748 mmHg 80%
    07:00 +18°C° 0 mm 3 mps 748 mmHg 76%
    08:00 +20°C° 0 mm 3 mps 749 mmHg 72%
    09:00 +21°C° 0 mm 3 mps 749 mmHg 68%
    10:00 +22°C° 0 mm 3 mps 749 mmHg 63%
    11:00 +25°C° 0 mm 3 mps 749 mmHg 58%
    12:00 +25°C° 0 mm 3 mps 749 mmHg 56%
    13:00 +26°C° 0 mm 3 mps 748 mmHg 54%
    14:00 +26°C° 0 mm 2 mps 748 mmHg 52%
    15:00 +26°C° 0 mm 2 mps 748 mmHg 56%
    16:00 +26°C° 0 mm 2 mps 748 mmHg 60%
    17:00 +26°C° 0 mm 2 mps 748 mmHg 64%
    18:00 +24°C° 0 mm 2 mps 748 mmHg 68%
    19:00 +21°C° 0 mm 2 mps 748 mmHg 71%
    20:00 +19°C° 0 mm 2 mps 748 mmHg 74%
    21:00 +19°C° 0 mm 1 mps 748 mmHg 75%
    22:00 +18°C° 0 mm 1 mps 748 mmHg 75%
    23:00 +18°C° 0 mm 1 mps 748 mmHg 76%

    26 Julio, Viernes

    Tiempo Temperatura Precipitaciones Viento Presión Humedad
    00:00 +16°C° 0 mm 1 mps 748 mmHg 77%
    01:00 +16°C° 0 mm 1 mps 749 mmHg 79%
    02:00 +15°C° 0 mm 1 mps 749 mmHg 80%
    03:00 +15°C° 0 mm 2 mps 749 mmHg 82%
    04:00 +15°C° 0 mm 2 mps 749 mmHg 84%
    05:00 +15°C° 0 mm 2 mps 749 mmHg 86%
    06:00 +17°C° 0 mm 2 mps 749 mmHg 84%
    07:00 +19°C° 0 mm 2 mps 749 mmHg 82%
    08:00 +21°C° 0 mm 2 mps 749 mmHg 80%
    09:00 +22°C° 0.1 mm 3 mps 748 mmHg 75%
    10:00 +24°C° 0.1 mm 3 mps 748 mmHg 71%
    11:00 +25°C° 0.1 mm 4 mps 748 mmHg 67%
    12:00 +26°C° 0 mm 4 mps 748 mmHg 63%
    13:00 +26°C° 0 mm 4 mps 748 mmHg 59%
    14:00 +26°C° 0 mm 4 mps 747 mmHg 55%
    15:00 +26°C° 0 mm 4 mps 747 mmHg 60%
    16:00 +25°C° 0 mm 3 mps 747 mmHg 65%
    17:00 +25°C° 0 mm 3 mps 747 mmHg 70%
    18:00 +23°C° 0 mm 2 mps 747 mmHg 74%
    19:00 +20°C° 0 mm 2 mps 747 mmHg 78%
    20:00 +18°C° 0 mm 2 mps 747 mmHg 82%
    21:00 +18°C° 0 mm 2 mps 747 mmHg 82%
    22:00 +17°C° 0 mm 2 mps 747 mmHg 83%
    23:00 +16°C° 0 mm 3 mps 747 mmHg 84%
    Mostrar más